Regional Weather Roundup
Issued by NWS

Home | Current Version | Previous Version | Graphics & Text | Print | Product List | Glossary On
Versions: 1 2 3 4 5 6 7 8 9 10 11 12 13 14 15 16 17 18 19 20 21 22 23 24 25 26 27 28 29 30 31 32 33 34 35 36 37 38 39 40 41 42 43 44 45 46 47 48 49 50
483
ASUS45 KABQ 301010
RWRNM
NEW MEXICO REGIONAL WEATHER ROUNDUP
NATIONAL WEATHER SERVICE ALBUQUERQUE NM
400 AM MDT SAT JUL 30 2016

NOTE: "FAIR" MEANS FEW OR NO CLOUDS BELOW 12,000 FEET AGL WITH NO
       SIGNIFICANT WEATHER OR OBSTRUCTIONS TO VISION.

      THIS PRODUCT IS RELEASED AS TWO VERSIONS.  ONE VERSION NEAR
      THE TOP OF THE HOUR CONTAINING PRELIMINARY DATA FROM ALBUQUERQUE
      AND OTHER STATIONS.  A FINAL VERSION WITH ADDITIONAL DATA IS
      ISSUED ABOUT 10 MINUTES AFTER THE HOUR.

NMZ501-503-504-510>518-301100-
NORTHWEST PLATEAU/NORTHCENTRAL MOUNTAINS

CITY           SKY/WX    TMP DP  RH WIND       PRES   REMARKS
FARMINGTON     FAIR      72  44  36 E14       30.11R
LOS ALAMOS     FAIR      64  43  46 S8        30.30F
SANTA FE       FAIR      64  46  52 S9        30.24F
TAOS           FAIR      52  32  46 E6        30.31S
ANGEL FIRE     FAIR      39  37  92 CALM      30.40S

$$
NMZ402-403-502-505>509-301100-
WESTCENTRAL MOUNTAINS/SOUTHWEST MOUNTAINS

CITY           SKY/WX    TMP DP  RH WIND       PRES   REMARKS
GALLUP         FAIR      65  46  50 S5        30.21S
GRANTS         FAIR      60  49  67 SE7       30.24F
SILVER CITY    FAIR      68  51  55 CALM      30.15F

$$
NMZ407-409-411-412-301100-
SOUTHERN DESERTS

CITY           SKY/WX    TMP DP  RH WIND       PRES   REMARKS
LORDSBURG      FAIR      72  52  49 W3        30.05F
DEMING         FAIR      78  55  44 E6        30.07S
LAS CRUCES     FAIR      76  55  47 S3        30.11S
HOLLOMAN AFB   CLOUDY    78  58  51 S15       30.07R
ALAMOGORDO     FAIR      77  55  47 S16G24    30.09S
T OR C         FAIR      71  50  47 N3        30.11R

$$
NMZ519>523-301100-
CENTRAL VALLEYS/CENTRAL HIGHLANDS

CITY           SKY/WX    TMP DP  RH WIND       PRES   REMARKS
ALBUQUERQUE    CLOUDY    68  58  70 N8        30.17F
DOUBLE EAGLE   FAIR      59  49  69 NW7       30.20F
MORIARTY ARPT  FAIR      56  52  86 CALM      30.26S
CLINES CORNERS FAIR      58  47  66 E6        30.31S
BELEN          FAIR      66  48  51 W5        30.16F
SOCORRO        FAIR      68  46  44 CALM      30.14R

$$
NMZ524>526-539-540-301100-
SOUTHCENTRAL MOUNTAINS

CITY           SKY/WX    TMP DP  RH WIND       PRES   REMARKS
RUIDOSO          N/A     64  50  59 E3        30.31F

$$
NMZ527>531-301100-
NORTHEAST HIGHLANDS/NORTHEAST PLAINS

CITY           SKY/WX    TMP DP  RH WIND       PRES   REMARKS
LAS VEGAS      FAIR      50  47  89 N3        30.29F
RATON          FAIR      56  49  77 W5        30.24S
CLAYTON        FAIR      61  56  83 SW8       30.15F

$$
NMZ532>537-301100-
EASTCENTRAL PLAINS

CITY           SKY/WX    TMP DP  RH WIND       PRES   REMARKS
TUCUMCARI      FAIR      64  61  90 N8        30.11S
CANNON AFB     MOCLDY    67  60  77 SW2       30.12R
CLOVIS AIRPORT FAIR      64  57  77 W6        30.12R

$$
NMZ028-029-538-301100-
SOUTHEAST PLAINS

CITY           SKY/WX    TMP DP  RH WIND       PRES   REMARKS
ROSWELL        FAIR      75  56  51 SE5       30.07F
ARTESIA        FAIR      75  59  57 SE10      30.08S
CARLSBAD       FAIR      73  57  57 SE5       30.05S
HOBBS          FAIR      72  63  73 S7        30.11F


$$




USA.gov is the U.S. government's official web portal to all federal, state and local government web resources and services.